Miscellaneous Local Product
Issued by NWS North Platte, NE

Home | Current Version | Previous Version | Graphics & Text | Print | Product List | Glossary On
Versions: 1 2 3 4 5 6 7 8 9 10 11 12 13 14 15 16 17 18 19 20 21 22 23 24 25 26 27 28 29 30 31 32 33 34 35 36 37 38 39 40 41 42 43 44 45 46 47 48 49 50
000
AXUS43 KLBF 010710
MISLBF


WESTERN AND NORTH CENTRAL NEBRASKA HOURLY WEATHER ROUNDUP
NATIONAL WEATHER SERVICE NORTH PLATTE NE
200 AM CDT SUN MAY 01 2016

NOTE: "FAIR" INDICATES FEW OR NO CLOUDS BELOW 12,000 FEET WITH NO
SIGNIFICANT WEATHER AND/OR OBSTRUCTIONS TO VISIBILITY.

NOTE: STATIONS NOT REPORTING VARIABLES SUCH AS SKY/WEATHER OR
PRESSURE ARE PROVIDED BY RAWS AND APRS NETWORKS AND ARE NOT UNDER
NATIONAL WEATHER SERVICE QUALITY CONTROL.

...OBSERVATIONS IN AND NEAR THE EASTERN PANHANDLE OF NEBRASKA...

CITY           SKY/WX    TMP DP  RH WIND       PRES   REMARKS
PINE RIDGE     CLOUDY    38  36  92 NW3       30.21R
CHADRON        CLOUDY    41  36  82 NE8       30.21S
ALLIANCE       MIX PCPN  33  32  96 N13       30.18R WCI  24
SIDNEY         LGT SNOW  34  32  92 N21       30.15R FOG     WCI  22
CRESCENT LAKE    N/A     34  33  96 N13G20      N/A  WCI  25
BIG SPRINGS      N/A     34  33  95 N10         N/A  WCI  26
$$

...OBSERVATIONS IN NORTHERN NEBRASKA AND FAR SOUTHERN SOUTH DAKOTA...

CITY           SKY/WX    TMP DP  RH WIND       PRES   REMARKS
WINNER         CLOUDY    43  40  89 N8        30.16R
VALENTINE      LGT RAIN  39  37  92 N7        30.15S WCI  34
THEDFORD       CLOUDY    37  36  96 N15G21    30.09R WCI  27
AINSWORTH      LGT RAIN  39  38  96 NE16G23   30.11S WCI  31
O`NEILL        DRIZZLE   42  40  93 NE22G28   30.06R
ORD            LGT RAIN  41  38  89 NE17G26   29.99R
BROKEN BOW     LGT RAIN  39  37  92 N13       30.01R WCI  31
VALENTINE NWR    N/A     37  36  97 NE15G22     N/A  WCI  28
BUTTE            N/A     41  40  96 NE14        N/A
HALSEY           N/A     34  34  99 N9G16       N/A  WCI  27
CHAMBERS         N/A     41  40  98 N14         N/A
EWING            N/A     42  41  96 NE7         N/A
$$

...OBSERVATIONS IN SOUTHWEST NEBRASKA AND FAR NORTHEAST COLORADO...

CITY           SKY/WX    TMP DP  RH WIND       PRES   REMARKS
HOLYOKE        LGT RAIN  36  34  93 N20       30.12R WCI  25
IMPERIAL       LGT SNOW  34  32  92 N18       30.08R FOG     WCI  23
OGALLALA       LGT RAIN  36  33  90 N21       30.11R WCI  24
NORTH PLATTE   LGT SNOW  33  32  96 N15       30.05R FOG     WCI  23
MCCOOK         CLOUDY    37  34  89 N20       30.00S WCI  27
LEXINGTON      LGT RAIN  40  38  89 N17       29.99R WCI  32
PAXTON           N/A     35  34  95 N13         N/A  WCI  26
STAPLETON        N/A     33  32  97 CALM        N/A
GOTHENBURG       N/A     37  34  89 N12         N/A  WCI  29
CALLAWAY         N/A     35  34  95 NE12        N/A  WCI  27
$$

...OBSERVATIONS IN CENTRAL LINCOLN COUNTY AREA...

CITY           SKY/WX    TMP DP  RH WIND       PRES   REMARKS
N.P. AIRPORT   LGT SNOW  33  32  96 N15       30.05R FOG     WCI  23
N.P. DOWNTOWN    N/A     33  33 100 N9          N/A  WCI  25
N.P. HILLCREST   N/A     33  33 100 N16         N/A  WCI  22
$$

...SOME OBSERVATIONS FROM AROUND THE REGION...

CITY           SKY/WX    TMP DP  RH WIND       PRES   REMARKS
DENVER         LGT SNOW  33  29  85 NW17      30.21S WCI  22
LARAMIE        LGT SNOW  28  24  85 NE10      30.21R FOG     WCI  19
CHEYENNE       LGT SNOW  30  28  92 N17G26    30.21R FOG     WCI  18
SCOTTSBLUFF    LGT RAIN  37  35  92 NW7       30.22R WCI  32
RAPID CITY     CLOUDY    39  32  76 N9        30.24S WCI  33
BISMARCK       CLEAR     37  31  78 NE3       30.29R
PIERRE         CLOUDY    39  32  76 NE10      30.17R WCI  32
SIOUX FALLS    LGT RAIN  44  40  85 NE12      30.09S
OMAHA          DRIZZLE   47  45  93 NE15      29.92R
GRAND ISLAND   LGT RAIN  43  41  93 N16       29.94R FOG
KANSAS CITY    MOCLDY    52  46  80 W5        29.88S
WICHITA        CLEAR     47  41  80 W12       29.95R
OKLAHOMA CITY  CLEAR     54  44  69 N9        29.97R
DALLAS         PTCLDY    63  57  81 N9        29.88F
AMARILLO       CLEAR     42  32  67 N28G36    30.06F
DODGE CITY     CLOUDY    39  34  82 NW16      30.01S WCI  30
HAYS           CLOUDY    43  30  61 W14       29.97S
GOODLAND       CLOUDY    35  33  92 N23G30    30.03R WCI  23
$$




USA.gov is the U.S. government's official web portal to all federal, state and local government web resources and services.